Regional Weather Roundup
Issued by NWS Wakefield, VA

Home | Current Version | Previous Version | Text Only | Print | Product List | Glossary Off
Versions: 1 2 3 4 5 6 7 8 9 10 11 12 13 14 15 16 17 18 19 20 21 22 23 24 25 26 27 28 29 30 31 32 33 34 35 36 37 38 39 40 41 42 43 44 45 46 47 48 49 50

000
ASUS41 KAKQ 211110
RWRAKQ

REGIONAL WEATHER ROUNDUP
NATIONAL WEATHER SERVICE WAKEFIELD VA
700 AM EDT SUN SEP 21 2014

Note: "fair" indicates few or no clouds below 12,000 feet with no
significant weather and/or obstructions to visibility. * = Denotes
station may not report precipitation (e.g., rain,snow,etc.),
thunder or fog.

VAZ042-051-052>054-056-211200-
NORTHERN VIRGINIA

CITY           SKY/WX    TMP DP  RH WIND       PRES   REMARKS
WASH NATIONAL  PTCLDY    65  59  81 NE6       29.90F
DULLES         MOCLDY    54  54 100 CALM      29.91R
FORT BELVOIR   CLEAR     56  56  97 W5        29.90S
QUANTICO       CLEAR     60  57  89 NW8       29.90F
FREDERICKSBRG* PTCLDY    57  57 100 CALM      29.88F
STAFFORD*      CLEAR     53  53 100 NW3       29.93F FOG
WARRENTON      FOG       54  54 100 CALM      29.90S VSB 1/4
CULPEPER*        N/A     54  54 100 CALM      29.91F FOG
MANASSAS*      CLEAR     54  54 100 CALM      29.91R
LEESBURG*      CLEAR     57  57 100 CALM      29.91S
WINCHESTER     CLEAR     55  54  94 S3        29.89F
FRONT ROYAL*   SUNNY     57  55  94 S8        29.89F
LURAY*         SUNNY     54  54 100 CALM      29.93S FOG
$$

VAZ048-049-060>072-079>083-211200-
CENTRAL AND SOUTH CENTRAL VIRGINIA...AND NORTH CENTRAL NORTH CAROLINA

CITY           SKY/WX    TMP DP  RH WIND       PRES   REMARKS
RICHMOND       CLOUDY    63  61  93 NW6       29.89R
CHESTERFIELD*  CLOUDY   N/A N/A N/A NW7       29.90R
PETERSBURG*    CLOUDY    63  62  95 N6        29.88R
HANOVER        CLOUDY    60  60 100 NW5       29.91R
TAPPAHANNOCK*  FOG       64  63  94 CALM      29.88S VSB 1/4
CHARLOTTSVILLE CLEAR     55  53  93 CALM      29.90F
ORANGE*          N/A     52  52 100 CALM      29.91F FOG
LOUISA*          N/A     54  52  94 CALM      29.90R FOG
FARMVILLE*     CLEAR     57  57 100 NW3       29.89F
CREWE*         MOSUNNY   58  56  94 CALM      29.90R
FORT PICKETT*  CLOUDY    61  60  97 N5        29.90R VSB 1
LUNENBURG*     MOSUNNY   60  60  99 N5        29.89S
SOUTH HILL*    PTCLDY    63  63 100 NW6       29.93S
LAWRENCEVILLE* MOSUNNY   63  62  97 NW5       29.87S
ROANOKE RAPIDS CLOUDY    64  63  94 N6        29.86R
RALEIGH        PTCLDY    63  60  90 CALM      29.91R
$$

VAZ088>098-211200-
SOUTHEAST VIRGINIA

CITY           SKY/WX    TMP DP  RH WIND       PRES   REMARKS
NORFOLK        CLOUDY    71  69  93 NE12      29.83S
VIRGINIA BEACH LGT RAIN  71  69  93 NE10      29.82S
NORFOLK NAVAL  CLOUDY    73  69  87 N20       29.85S
WEST POINT*    CLOUDY    67  65  92 CALM      29.87S
NEWPORT NEWS   CLOUDY    73  68  84 N6        29.84F
LANGLEY AFB    CLOUDY    72  72 100 NE13      29.83S
FORT EUSTIS    CLOUDY    70 N/A N/A N7        29.83S
WILLIAMSBURG*  CLOUDY    70  68  94 NE6       29.86S
HR EXEC AP*    CLOUDY    72  68  88 N6        29.85S
FRANKLIN*      CLOUDY    68  66  94 N7        29.84S
WAKEFIELD      CLOUDY    67  64  90 VRB6      29.86R
$$

VAZ020-022-025-037-045-211200-
WEST CENTRAL AND SOUTHWEST VIRGINIA

CITY           SKY/WX    TMP DP  RH WIND       PRES   REMARKS
STAUNTON*      CLEAR     51  49  93 CALM      29.96S FOG
HOT SPRINGS VA CLEAR     55  43  64 W10       30.05S
LYNCHBURG      CLEAR     52  52 100 CALM      29.93F
DANVILLE       CLEAR     58  55  90 CALM      29.93S
SOUTH BOSTON*  NOT AVBL
MARTINSVILLE   CLEAR     52  52 100 CALM      29.97F FOG
ROANOKE        PTCLDY    56  54  93 NE3       29.98F
BLACKSBURG     FOG       55  55 100 CALM      30.02F VSB<1/4
DUBLIN*        FOG       52  52 100 CALM      30.02F VSB 1/4
MARION*        PTCLDY    53  52  97 W5        30.06R FOG
HILLSVILLE*    FOG       50  50 100 SW5       30.03S VSB 1/4
RICHLANDS*     PTSUNNY   60  57  87 CALM      30.03S
WISE*          CLEAR     55  55 100 SW6       30.04S
ABINGDON*      MOCLDY    56  56 100 CALM      30.03R FOG
$$

MDZ021>025-VAZ099-100-211200-
SOUTHERN MARYLAND AND THE DELMARVA PENINSULA

CITY           SKY/WX    TMP DP  RH WIND       PRES   REMARKS
PATUXENT RIVER MOCLDY    67  65  93 NE5       29.86F
BAY BRIDGE APT FOG       64  64 100 NE3       29.89F VSB 3/4
LEONARDTOWN    MOCLDY    63  61  94 CALM      29.88S
DOVER          PTCLDY    66  66 100 VRB3      29.85F
GEORGETOWN     FOG       69  68  96 E10       29.88F VSB 1
EASTON         FOG       64  64 100 CALM      29.91F VSB 1/4
CAMBRIDGE      MOCLDY    68  64  88 NE5       29.86F
SALISBURY      CLOUDY    70  66  88 NE7       29.86F FOG
OCEAN CITY     CLOUDY   N/A N/A N/A NE6       29.87S HAZE
WALLOPS ISLAND CLOUDY    70  69  97 E8        29.87S FOG
ACCOMACK*      CLOUDY    68  66  94 NE7       29.85F FOG
$$

NCZ012>017-030>032-211200-
EASTERN NORTH CAROLINA

CITY           SKY/WX    TMP DP  RH WIND       PRES   REMARKS
ELIZABETH CITY LGT RAIN  70  69  97 N14       29.79F
AHOSKIE*       CLOUDY    66  65  94 N6        29.84S
EDENTON*       LGT RAIN  70  69  96 N10       29.80S
CURRITUCK*     LGT RAIN  71  69  93 N9        29.81R
KILL DEVIL HLS DRIZZLE   71  70  97 N7        29.76S
MANTEO         RAIN      70  70  98 N13G20    29.76F
CAPE HATTERAS  CLOUDY    70  70 100 NE9G17    29.71S
TARBORO*       CLOUDY    68  65  91 N5        29.84F
GOLDSBORO      CLOUDY    69  68  98 NW1       29.82S
WASHINGTON     CLOUDY    68  67  96 N8        29.81R
GREENVILLE     CLOUDY    68  68 100 N8        29.84F
NEW BERN       CLOUDY    72  68  87 N12       29.79R
WILMINGTON     CLOUDY    69  68  96 NW13      29.81R
$$

VAZ048-211200-
ELSEWHERE

CITY           SKY/WX    TMP DP  RH WIND       PRES   REMARKS
HARRISBURG PA  FOG       61  60  97 N3        29.90F VSB 1/2
BALTIMORE      FOG       59  57  94 NW5       29.90S VSB 1/2
ANNAPOLIS      PTCLDY    66  63  90 N3        29.89R
ANDREWS AFB    CLEAR     57  56  99 NE2       29.89F
WILMINGTON DE  CLOUDY    65  64  97 NE3       29.90S
PHILADELPHIA   MOCLDY    67  64  90 N8        29.91R FOG
WILDWOOD NJ*   CLOUDY    68  64  88 E7        29.89F
ATLANTIC CITY  PTCLDY    65  65 100 NE3       29.89F FOG
HENDERSON NC   CLOUDY    61  59  94 N5        29.91R FOG
GREENSBORO     MOCLDY    59  57  93 CALM      29.94S
ROCKY MOUNT    MOCLDY    67  64  90 N7        29.86R
FAYETTEVILLE   CLOUDY    68  63  84 NW10      29.87R
CHARLOTTE      PTCLDY    59  57  93 NW7       29.97S
$$

VAZ100-211200-
MARINE

STATION/POSITION TIME  TEMP    WIND        PRES    WAVE   SWELL
                       AIR SEA DIR/SP/G            HT/PER HT/PER
                 (UTC) (F)     (DEG/KT/KT) (MB)    (FT/S) (FT/S)
44066 TX TWR #4  1100   73 72  180/  6/  8 1013.2R   5/ 8   5/ 8
CAPE MAY NJ      1100   68 74   70/  4/  6 1011.4F
LEWES DE         1100   70 72   60/ 12/ 13 1011.3F
15NM E FENWICK I 1100   72 72              1011.0F   5/ 8
OCEAN-CITY-INLET 1100   71 71   80/  3/  5 1011.1S
WACHAPREAGUE VA  1100   69 73   40/  5/  8 1010.8R
THOMAS POINT MD  1100   67 74   60/  7/  7 1013.1R
GOOSES REEF MD   1100   69      80/  6/  8 1012.0S
COVE POINT MD    1100   68      90/  6/  7 1011.2S
SOLOMONS ISLAND  1100      76                N/A
BISHOPS HEAD MD  1100   68 72   20/  7/ 12 1010.9F
PINEY POINT MD   1100          100/  4/  5   N/A
POTOMAC MD       1100   71      80/ 10/ 12 1010.6F
CAMBRIDGE MD     1100   69 74   80/  8/  9 1010.9F
LEWISETTA VA     1100   70 74   70/  8/ 10 1010.6F
RAPPAHANNOCK LGT 1100           20/ 16/ 18 1011.0F
STINGRAY PT      1100   72      30/ 14/ 16   N/A
YORK RVR RNG VA  1100   72      50/ 15/ 17 1009.9R
YORKTOWN VA      1100   71 76   30/  9/ 10 1010.2R
JAMESTOWN VA     1100   67     360/  6/ 10   N/A
DOMINION TERM VA 1100   72      20/  7/ 12 1010.3S
KIPTOPEKE VA     1100      78   20/  6/ 11   N/A
CHES BAY BRIDGE  1100   71 75   30/ 14/ 18 1009.4F
CAPE HENRY VA    1100   72      40/ 18/ 20 1008.7F
CHESAPEAKE LGHT  1000   71      10/ 13/ 14 1010.7F
WILLOUBY STN VA  1100   72      20/ 17/ 18 1008.9F
S CRANEY ISL VA  1100          360/ 15/ 21 1009.7F
CAPE HENRY BUOY  1100      74                N/A     5/ 9   2/11
1ST LANDING BUOY 1100   72      40/ 16/ 17 1009.8F
CAPE CHARLES BUO 1100      74                N/A     5/10   5/10
OFFSHORE WE BUOY 1100      74                N/A     6/ 8   5/ 8
64NM E OF VA BCH 1100   72 70   70/  6/  8 1007.8F   8/ 9   8/ 9
DUCK PIER NC     1100   72 74   30/ 15/ 17 1007.6S
44100 DUCK FRF   1100      74                N/A     6/ 9   2/11
44056 DUCK FRF   1100                        N/A     5/ 8   2/11
OREGON INLET NC  1100   72 74   20/ 12/ 18 1006.9S
HATTERAS NC      1100   73 74   10/ 18/ 21 1006.2F
DIAMOND SHLS NC  1100   73     320/ 12/ 16 1005.1F   8/ 8   7/ 8
CAPE LOOKOUT NC  1000   72      10/ 15/ 19 1005.6R
$$


USA.gov is the U.S. government's official web portal to all federal, state and local government web resources and services.